sat.trackr.live / text

‹ back to catalog

STARLINK-33764

NORAD 63510 · 2025-071T

PAYLOAD ACTIVE UNKNOWN

§ Identity

Operator
Country
US
Launch date
2025-04-07
Launch site
AFWTR
Launch vehicle
Mass (kg)
RCS (m²)

Purposes: comms

External: N2YO · Heavens-Above · Gunter

§ Orbital elements

Epoch: 2026-09-20T20:35:05.717184Z

Period
93.85 min
Inclination
53.1593°
Eccentricity
0.0001235
Mean motion
15.34396784 rev/d
Perigee alt
461.9 km
Apogee alt
463.6 km
Semi-major
6,840.8 km
B*
2.7703e-4
RAAN
311.7518°
Arg perigee
79.7850°
Mean anomaly
280.3292°
Rev number
8,265

§ Raw data

STARLINK-337641 63510U 25071T   26263.85770506  .00008994  00000+0  27703-3 0  99982 63510  53.1593 311.7518 0001235  79.7850 280.3292 15.34396784 82653

JSON: /api/v1/satellites/63510 · /tle

For live sub-satellite position, see the globe view (requires WebGL).

§ Visibility from observer

Set your observer location to see the next 7 days of passes ≥ 10°. The values pass through the URL so the page stays shareable.

No JS? Fill the form by hand. The geolocation button needs JavaScript.